Location: downtown San Diego
(32.7310°N, 117.1990°W)
Time: 11:37:16
(UTC-07:00)

MetOp-A - Pass Details

Date: 14 June 2018
Orbit: 819 x 821 km, 98.6° (Epoch: 18 October)

Event Time Altitude Azimuth Distance (km) Brightness Sun altitude
Exits shadow 21:51:48 30° 174° (S) 1,429 5.0 -19.8°
Maximum altitude 21:54:32 79° 257° (WSW) 839 4.2 -20.2°
Drops below altitude 10° 21:59:54 10° 344° (NNW) 2,420 7.5 -20.9°
Sets 22:02:15 0° 346° (NNW) 3,355 8.4 -21.3°
